Wind_Speed
12 12 13 9 9 9 9 11 14 18 21 23 25 27 27 27 28 27 29 31 22 21 18 14 15 17 17 16 16 17 18 19
9 13 14 11 10 11 11 12 16 20 21 24 28 29 30 30 34 24 31 29 24 22 17 17 17 18 17 17 17 18 18 18
9 10 13 14 12 14 14 14 17 20 24 26 29 30 30 32 29 23 25 27 29 27 18 20 20 19 19 18 20 20 19 18
9 10 12 14 14 15 17 16 18 19 23 26 30 32 31 29 21 24 25 28 32 35 20 23 22 24 23 21 21 20 20 19
12 11 11 14 16 16 19 18 19 20 23 26 28 29 29 26 28 26 25 33 27 43 28 27 25 25 23 24 23 22 23 21
18 14 14 16 16 16 18 18 18 20 22 26 28 28 27 26 25 23 20 17 33 40 32 26 26 25 24 25 24 23 20 19
21 15 14 15 14 16 17 18 17 18 20 24 25 28 27 24 23 26 20 17 30 36 33 29 27 26 26 24 23 20 19 18
22 17 14 14 14 15 17 18 16 16 17 22 23 27 26 24 24 25 24 15 25 39 33 29 28 28 26 24 22 22 19 20
22 18 16 15 14 14 17 18 15 14 14 18 22 25 25 24 23 24 25 15 29 36 35 30 30 27 27 24 23 20 19 22
24 20 20 17 14 13 16 18 14 13 13 17 20 23 25 25 25 26 26 21 26 31 31 31 30 29 29 27 24 21 21 20
27 22 22 20 15 13 16 18 13 13 14 17 20 23 24 25 26 28 28 31 28 20 35 32 33 31 30 28 26 24 24 21
28 26 24 23 15 14 17 18 14 14 14 17 21 23 25 27 28 31 29 35 31 29 40 31 33 33 31 29 27 26 23 20
31 27 25 23 17 15 17 16 16 16 16 18 22 26 28 29 31 34 35 39 33 29 37 36 35 34 32 33 29 27 24 22
31 28 25 22 20 17 18 17 17 17 18 20 23 25 29 32 36 40 37 44 34 34 39 34 36 35 34 31 30 29 27 22
31 29 24 21 20 19 19 19 17 16 18 20 21 24 26 30 30 37 33 44 40 34 39 38 38 37 36 34 34 31 26 24
32 29 25 21 19 19 21 18 15 16 14 15 15 17 22 27 35 30 41 43 39 38 41 40 39 39 38 35 31 25 27 25
31 29 26 21 21 19 19 15 15 13 12 15 13 10 6 16 20 30 35 35 43 37 43 43 37 33 33 34 29 31 27 22
34 30 26 22 20 18 16 12 13 10 11 14 15 12 5 4 10 21 29 27 37 38 45 39 35 39 33 32 31 30 28 28
32 28 25 23 20 18 14 12 11 11 11 11 10 9 11 7 4 7 24 26 37 39 38 41 34 35 33 33 31 31 32 33
32 29 26 24 21 18 14 11 10 10 11 11 10 10 10 11 11 8 14 31 42 39 41 40 34 37 37 35 35 37 38 38
Wind_Direction
279 291 303 307 315 300 275 256 248 239 232 233 233 231 233 229 227 229 222 215 225 226 229 226 217 210 209 208 206 203 194 199
267 284 290 298 306 312 292 268 259 244 239 232 236 236 236 237 243 246 227 211 214 224 223 216 216 215 213 207 203 195 198 200
269 284 289 294 300 304 305 284 272 254 245 235 239 239 243 250 251 265 236 250 222 221 215 215 217 210 211 207 202 197 195 201
255 274 286 293 296 299 304 294 281 270 255 245 238 242 243 255 251 245 246 243 237 218 212 212 210 207 201 202 204 201 198 200
250 253 278 289 290 296 302 296 284 275 262 249 240 238 240 242 243 245 270 257 225 199 201 203 203 204 200 201 202 203 203 205
242 254 269 278 280 294 302 296 284 274 264 253 237 235 235 239 245 236 251 244 216 205 195 195 199 207 203 201 200 202 206 206
237 247 262 271 276 293 302 296 283 272 261 245 237 230 230 233 232 232 238 243 233 194 194 192 197 201 199 199 201 203 209 206
232 237 251 261 273 291 303 294 285 274 259 241 232 226 227 228 229 234 236 257 228 206 194 192 201 202 200 201 202 208 208 208
229 227 242 255 267 287 302 291 280 266 259 238 226 223 226 227 229 234 230 231 201 197 193 196 202 202 199 202 206 210 212 212
226 226 237 249 261 280 296 288 276 260 254 240 223 224 226 228 225 227 226 210 222 206 193 198 201 200 202 203 205 207 210 211
230 231 237 248 259 275 290 286 273 262 250 243 232 228 227 228 226 226 221 208 217 226 196 202 201 200 204 205 206 209 214 213
227 231 237 246 258 273 284 282 270 263 256 247 237 236 234 232 228 224 215 213 215 217 206 201 201 202 203 205 208 213 213 210
226 231 238 245 254 272 280 281 270 270 266 251 243 240 238 232 236 230 227 218 214 210 214 194 199 205 205 207 208 217 216 215
235 235 238 241 248 269 279 273 265 268 265 259 248 242 238 237 237 227 232 213 220 215 206 201 206 206 207 211 214 221 220 219
234 241 234 233 244 263 277 271 269 275 265 254 248 243 242 240 243 231 234 217 213 209 207 204 209 209 214 214 216 221 226 227
233 241 230 225 239 257 273 269 284 280 267 233 228 252 253 253 228 223 225 226 217 209 208 207 209 211 215 216 219 228 234 236
237 237 216 219 236 256 268 272 283 274 245 210 214 240 278 235 206 219 217 216 219 220 202 206 207 208 222 225 227 228 231 229
234 226 209 220 232 253 262 274 278 255 224 213 214 219 231 298 218 203 215 209 209 211 200 209 211 211 219 226 229 235 240 243
220 208 215 218 227 251 259 267 271 243 212 220 219 234 244 253 240 192 209 195 204 199 199 205 210 215 220 227 228 234 236 235
197 208 208 217 226 247 253 257 258 238 215 211 225 241 245 237 232 194 198 211 205 201 209 209 212 217 218 224 228 231 235 242
Height
3123 3123 3123 3123 3123 3123 3122 3124 3123 3124 3126 3129 3129 3130 3131 3132 3132 3137 3140 3140 3144 3146 3148 3151 3154 3156 3157 3160 3163 3165 3167 3169
3121 3121 3120 3120 3120 3120 3120 3120 3120 3120 3122 3125 3126 3128 3129 3129 3130 3133 3131 3137 3138 3142 3145 3149 3151 3153 3156 3158 3161 3164 3166 3168
3118 3118 3117 3116 3116 3115 3116 3116 3116 3116 3118 3120 3122 3123 3124 3124 3123 3130 3133 3135 3138 3140 3143 3147 3150 3152 3154 3157 3159 3161 3164 3166
3114 3114 3114 3113 3112 3111 3111 3111 3111 3110 3112 3114 3117 3118 3121 3121 3121 3125 3128 3130 3133 3138 3140 3145 3148 3150 3151 3154 3158 3160 3162 3163
3111 3111 3111 3110 3109 3108 3107 3107 3106 3105 3106 3108 3111 3113 3115 3117 3119 3121 3123 3121 3122 3128 3135 3140 3143 3147 3149 3152 3155 3158 3158 3160
3107 3108 3107 3106 3106 3104 3103 3102 3101 3100 3100 3101 3104 3108 3110 3113 3114 3116 3118 3117 3116 3123 3131 3136 3140 3144 3147 3150 3152 3154 3157 3158
3102 3103 3103 3103 3101 3100 3099 3098 3097 3095 3094 3095 3098 3102 3106 3108 3109 3112 3113 3115 3115 3120 3125 3132 3136 3141 3144 3146 3150 3152 3155 3156
3097 3098 3099 3098 3097 3096 3095 3095 3092 3091 3091 3092 3093 3097 3100 3103 3106 3107 3109 3111 3108 3115 3119 3128 3134 3137 3140 3144 3147 3150 3152 3154
3091 3093 3094 3093 3092 3091 3091 3092 3089 3087 3088 3088 3090 3092 3095 3098 3101 3103 3105 3108 3107 3111 3117 3125 3130 3133 3137 3140 3144 3147 3150 3153
3086 3087 3089 3089 3088 3087 3087 3087 3085 3084 3084 3086 3086 3088 3091 3094 3096 3099 3101 3105 3107 3110 3113 3121 3126 3130 3133 3137 3141 3145 3148 3150
3080 3082 3083 3084 3082 3083 3083 3083 3080 3080 3080 3082 3083 3084 3086 3089 3091 3094 3097 3100 3103 3107 3110 3118 3122 3127 3130 3134 3138 3141 3144 3146
3073 3076 3077 3078 3077 3078 3078 3077 3076 3076 3075 3076 3078 3080 3082 3083 3086 3087 3092 3095 3098 3103 3106 3114 3119 3124 3127 3131 3134 3138 3141 3143
3066 3069 3071 3073 3073 3074 3073 3072 3071 3071 3070 3071 3073 3074 3076 3078 3079 3081 3085 3090 3094 3098 3102 3109 3115 3120 3123 3126 3130 3135 3138 3140
3061 3064 3066 3067 3069 3069 3069 3067 3067 3066 3065 3065 3065 3067 3068 3070 3071 3074 3076 3082 3088 3092 3096 3105 3110 3115 3119 3124 3127 3132 3134 3137
3055 3058 3060 3062 3063 3065 3064 3063 3062 3060 3059 3059 3059 3060 3060 3060 3062 3063 3068 3075 3081 3087 3092 3100 3105 3111 3115 3121 3123 3127 3131 3134
3048 3052 3054 3056 3059 3060 3060 3058 3056 3056 3053 3054 3055 3055 3054 3052 3053 3058 3063 3069 3075 3082 3088 3096 3101 3107 3112 3116 3121 3125 3127 3131
3041 3045 3048 3051 3054 3056 3055 3053 3053 3051 3050 3050 3051 3052 3050 3048 3048 3052 3057 3063 3071 3076 3082 3091 3098 3104 3110 3113 3118 3120 3125 3129
3035 3040 3042 3047 3050 3051 3051 3049 3049 3048 3047 3047 3049 3049 3049 3049 3048 3049 3054 3058 3065 3071 3080 3089 3095 3100 3106 3109 3113 3116 3121 3124
3030 3034 3038 3042 3045 3047 3046 3046 3046 3045 3045 3046 3046 3047 3047 3048 3049 3050 3053 3057 3063 3069 3075 3083 3089 3095 3100 3103 3108 3111 3113 3116
3024 3030 3034 3038 3040 3042 3043 3042 3043 3042 3042 3044 3044 3044 3045 3047 3048 3051 3054 3057 3060 3067 3071 3076 3084 3090 3093 3096 3100 3104 3107 3109